Weather in Novyye Yel'tsy

Russia / Tver Oblast     57°16′54″N   32°54′29″E
temp.,
°C
wind,
m/s
gust,
m/s
humid.,
%
clouds,
%
prec.,
mm/h
press.,
hPa
HPBL,
m
16 april, fri
fri1600:00+5ene6157988 0.0 1022585
03:00+4ene51485100 0.0 1022534
06:00+4ene51487100 0.0 1022514
09:00+6ene51481100 0.0 1022601
12:00+10e5968100 0.0 1023782
15:00+13ene6961100 0.0 1022990
18:00+11ene51168100 0.0 1023971
21:00+8ene51475100 0.0 1023675
17 april, sat
sat1700:00+6ene51572100 0.0 1024692
03:00+6ene51374100 0.0 1024531
06:00+5ene5128193 0.0 1024454
09:00+7ene5975100 0.0 1025493
12:00+11ene5864100 0.0 1025897
15:00+13ene5856100 0.0 10241190
18:00+12ene5105891 0.0 10241039
21:00+8ene5136150 0.0 1025614
18 april, sun
sun1800:00+6ene514625 0.0 1025534
03:00+5ene413700 0.0 1025460
06:00+3ene413785 0.0 1025446
09:00+7ene510615 0.0 1025648
12:00+11ene58465 0.0 10241293
15:00+13ene683870 0.0 10241768
18:00+12e494690 0.0 10241871
21:00+7ne396739 0.0 1025242
19 april, mon
mon1900:00+5ene3107757 0.0 1026348
03:00+4ene411835 0.0 1026424
06:00+3ene4129130 0.0 1026455
09:00+7e5107792 0.0 1026752
12:00+7e5975100 0.0 10261047
15:00+7e51077100 0.1 10251108
18:00+6e51188100 0.1 1025896
21:00+5e51184100 0.1 1024901
20 april, tue
tue2000:00+5e41082100 0.0 1023910
03:00+5e51184100 0.0 1021799
06:00+5e51376100 0.0 1019737
09:00+6e61465100 0.0 1017822
12:00+8e61462100 0.0 10141030
15:00+6e71675100 0.6 10111242
18:00+5ene71892100 2.1 10071235
21:00+5e71894100 3.9 10031361